Regional Weather Roundup
Issued by NWS Newport/Morehead, NC

Current Version | Previous Version | Graphics & Text | Print | Product List | Glossary On
Versions: 1 2 3 4 5 6 7 8 9 10 11 12 13 14 15 16 17 18 19 20 21 22 23 24 25 26 27 28 29 30 31 32 33 34 35 36 37 38 39 40 41 42 43 44 45 46 47 48 49 50
000 ASUS42 KMHX 190526 RWRMHX WEATHER ROUNDUP FOR EASTERN NORTH CAROLINA NATIONAL WEATHER SERVICE NEWPORT/MOREHEAD CITY NC 100 AM EDT SAT AUG 19 2017 NOTE: "FAIR" INDICATES FEW OR NO CLOUDS BELOW 12,000 FEET WITH NO SIGNIFICANT WEATHER AND/OR OBSTRUCTIONS TO VISIBILITY NCZ015>017-031-032-045>047-102-103-190600- NORTH COAST CITY SKY/WX TMP DP RH WIND PRES REMARKS EDENTON FAIR 83 78 86 S9 29.90F ELIZABETH CITY FAIR 82 80 94 S10 29.89F KITTY HAWK MOCLDY 82 78 88 SW3 29.89F MANTEO FAIR 82 78 90 SW15 29.91F $$ NCZ045>047-081-094-103-104-190600- CENTRAL COAST CITY SKY/WX TMP DP RH WIND PRES REMARKS FRISCO FAIR 84 82 94 SW12 29.94S HX 100 $$ NCZ095-097-098-100-101-190600- SOUTHERN COAST CITY SKY/WX TMP DP RH WIND PRES REMARKS BEAUFORT MOCLDY 83 82 97 SW16 29.94S CEDAR ISLAND NOT AVBL JACKSONVILLE FAIR 81 79 94 SW7 29.93R PINEY ISLAND FAIR N/A N/A N/A S9 29.93S WILMINGTON FAIR 83 79 88 SW8 29.94R $$ NCZ011>013-027>030-043-044-078>080-089-090>093-098-190600- COASTAL PLAIN CITY SKY/WX TMP DP RH WIND PRES REMARKS AHOSKIE N/A 79 77 92 CALM 29.90F CLINTON FAIR 81 80 97 CALM 29.93R ELIZABETHTOWN NOT AVBL GOLDSBORO CLEAR 81 81 100 SW6 29.90S GREENVILLE FAIR 81 77 89 SW8 29.93S HAVELOCK FAIR 83 79 88 SW10 29.94S KENANSVILLE FAIR 79 77 94 CALM 29.92S KINSTON FAIR 81 77 87 S8 29.92S NEW BERN FAIR 80 79 96 SW7 29.94R RICHLANDS FAIR 79 78 97 S7 29.94R ROCKY MOUNT MOCLDY 82 76 81 VRB3 29.92R WASHINGTON FAIR 81 77 88 S6 29.91S WHITEVILLE FAIR 80 76 87 S5 29.93S $$ AMZ130-135-150-152-154-156-158-170-250-252-270-ANZ085-086-088-633-658-670-190600- MARINE OBSERVATIONS STATION/POSITION TIME TEMP WIND PRES WAVE SWELL AIR SEA DIR/SP/G HT/PER HT/PER (UTC) (F) (DEG/KT/KT) (MB) (FT/S) (FT/S) CHESAPEAKE LIGHT NOT AVBL 64 E VA BEACH NOT AVBL DUCK NOT AVBL 2 E DUCK NOT AVBL OREGON INLET NOT AVBL 13E OREGON INLT NOT AVBL HATTERAS CG NOT AVBL DIAMOND BUOY NOT AVBL CAPE LOOKOUT NOT AVBL BEAUFORT LAB NOT AVBL 30 SE NEW RVR IN NOT AVBL 30 SE NEW RVR IN NOT AVBL 27 SE WRIGHTSVLE NOT AVBL 5 SE WRIGHTSVLE NOT AVBL 225 S CAPE HAT NOT AVBL 41 SE CHARLESTON NOT AVBL $$

USA.gov is the U.S. government's official web portal to all federal, state and local government web resources and services.